Ketchikan, AK

4:25 AM AKDT on August 15, 2018 (GMT -0800)
Ketchikan International

Weather History for PAKT - April, 2018

Change the Weather History Date:

Sunday, April 29, 2018

  Actual Average Record
Temperature  
Mean Temperature 47 °F -  
Max Temperature 55 °F 54 °F 75 °F (1976)
Min Temperature 39 °F 38 °F 26 °F (1954)
Degree Days  
Heating Degree Days 18    
Moisture  
Dew Point 36 °F    
Average Humidity 67    
Maximum Humidity 83    
Minimum Humidity 47    
Precipitation  
Precipitation 0.00 in - - ()
Sea Level Pressure  
Sea Level Pressure 30.10 in    
Wind  
Wind Speed 9 mph (NNW)    
Max Wind Speed 14 mph    
Max Gust Speed 18 mph    
Visibility 10 miles    
Events      
Averages and records for this station are not official NWS values.
T = Trace of Precipitation, MM = Missing Value Source: NWS Daily Summary

Daily Weather History Graph

Daily Weather History Graph

Search for Another Location

Airport or City:

Astronomy

Apr. 29, 2018 Rise Set
Actual Time 5:09 AM AKDT 8:20 PM AKDT
Civil Twilight 4:26 AM AKDT 9:03 PM AKDT
Nautical Twilight 3:28 AM AKDT 10:01 PM AKDT
Astronomical Twilight 2:06 AM AKDT 11:27 PM AKDT
Moon 7:59 PM AKDT (4/29) 5:41 AM AKDT (4/29)
Length of Visible Light 16h 37m
Length of Day
15h 10m
Full, 100% of the Moon is Illuminated
Apr 29
Full
Apr 29
Full
May 7
Last Quarter
May 15
New
May 21
First Quarter

Hourly Weather History & Observations

Time (AKDT) Temp. Windchill Dew Point Humidity Pressure Visibility Wind Dir Wind Speed Gust Speed Precip Events Conditions
12:53 AM 44.1 °F 39.0 °F 35.1 °F 71% 30.14 in 10.0 mi WNW 9.2 mph - N/A   Clear
1:53 AM 42.1 °F 37.1 °F 36.0 °F 79% 30.13 in 10.0 mi NW 8.1 mph - N/A   Clear
2:53 AM 42.1 °F 37.1 °F 36.0 °F 79% 30.13 in 10.0 mi NW 8.1 mph - N/A   Clear
3:53 AM 41.0 °F 35.2 °F 35.1 °F 79% 30.11 in 10.0 mi NW 9.2 mph - N/A   Clear
4:53 AM 42.1 °F 37.7 °F 35.1 °F 76% 30.12 in 10.0 mi NNW 6.9 mph - N/A   Clear
5:53 AM 39.9 °F 33.9 °F 35.1 °F 83% 30.11 in 10.0 mi NW 9.2 mph - N/A   Clear
6:06 AM 41.0 °F 36.4 °F 35.1 °F 79% 30.11 in 10.0 mi NW 6.9 mph - N/A   Clear
6:53 AM 44.6 °F 39.7 °F 35.6 °F 71% 30.12 in 10.0 mi NNW 9.2 mph - N/A   Clear
7:53 AM 44.6 °F 38.4 °F 33.8 °F 66% 30.13 in 10.0 mi NNW 12.7 mph - N/A   Clear
8:53 AM 46.4 °F 40.7 °F 35.6 °F 66% 30.12 in 10.0 mi NNW 12.7 mph - N/A   Clear
9:53 AM 48.2 °F - 35.6 °F 62% 30.12 in 10.0 mi NNW 11.5 mph - N/A   Clear
10:53 AM 51.8 °F - 33.8 °F 50% 30.12 in 10.0 mi NW 9.2 mph 18.4 mph N/A   Clear
11:53 AM 51.1 °F - 36.0 °F 56% 30.11 in 10.0 mi North 13.8 mph - N/A   Clear
12:53 PM 51.8 °F - 37.4 °F 58% 30.11 in 10.0 mi North 12.7 mph - N/A   Clear
1:53 PM 53.6 °F - 37.4 °F 54% 30.10 in 10.0 mi North 11.5 mph - N/A   Clear
2:53 PM 55.4 °F - 35.6 °F 47% 30.09 in 10.0 mi NNW 9.2 mph - N/A   Clear
3:53 PM 54.0 °F - 36.0 °F 51% 30.08 in 10.0 mi NNW 10.4 mph - N/A   Clear
4:53 PM 54.0 °F - 36.0 °F 51% 30.07 in 10.0 mi NNW 10.4 mph - N/A   Clear
5:53 PM 53.6 °F - 37.4 °F 54% 30.07 in 10.0 mi NNW 10.4 mph - N/A   Clear
6:53 PM 51.8 °F - 37.4 °F 58% 30.06 in 10.0 mi NW 6.9 mph - N/A   Clear
7:53 PM 46.9 °F - 39.9 °F 77% 30.06 in 10.0 mi WNW 5.8 mph - N/A   Clear
8:53 PM 46.9 °F - 37.9 °F 71% 30.08 in 10.0 mi NW 9.2 mph - N/A   Clear
9:53 PM 46.9 °F - 39.0 °F 74% 30.09 in 10.0 mi North 9.2 mph - N/A   Clear
10:53 PM 46.0 °F 40.6 °F 39.0 °F 76% 30.10 in 10.0 mi North 11.5 mph - N/A   Clear
11:53 PM 45.0 °F 39.3 °F 37.9 °F 76% 30.12 in 10.0 mi North 11.5 mph - N/A   Clear